SCP
0 0 0 0 0 0 0 -0 -0 0 0 0 0 0 0 0 0 0 0 0 0 0 0 0 0 0 0 0 0 0 0 0 0 0 0 0 0 0
0 0 0 0 0 0 0 0 -0 -0 -0 -0 -0 -0 -0 0 0 0 0 0 0 0 0 0 0 0 0 0 0 0 0 0 0 0 0 0 0 0
0 0 0 0 0 0 0 0 -0 -0 -0 -0 -0 -0 -0 0 0 0 0 0 0 0 0 0 0 0 0 0 0 0 0 0 0 0 0 0 0 0
0 0 0 0 0 0 0 0 0 -0 -0 0 0 -0 -0 0 0 0 0 0 0 0 0 0 0 0 0 0 0 0 0 0 0 0 0 0 0 0
0 0 0 0 0 0 0 0 0 0 0 0 0 -0 -0 -0 0 0 0 0 0 0 0 0 0 0 0 0 0 0 0 0 0 0 0 0 0 0
0 0 0 0 0 0 0 0 0 0 0 0 0 0 0 -0 -0 0 0 0 0 0 0 0 0 0 0 0 0 0 0 0 0 0 0 0 0 0
0 0 0 0 0 0 0 0 0 0 0 0 0 0 0 0 0 -0 0 0 0 0 0 0 0 0 0 0 0 0 0 0 0 0 0 0 0 0
0 0 0 0 0 0 0 0 0 0 0 0 0 0 0 0 0 -0 -0 0 0 0 0 0 0 0 0 0 0 0 0 0 0 0 0 0 0 0
0 0 0 0 0 0 0 0 0 0 0 0 0 0 0 0 0 0 -0 -0 -0 0 0 0 0 0 0 0 0 0 0 0 0 0 0 0 0 0
0 0 0 0 0 0 0 0 0 0 0 0 0 0 0 -0 -0 0 0 -0 0 0 0 0 0 0 0 0 0 0 0 0 0 0 0 0 0 0
0 0 0 0 0 0 0 0 0 0 0 0 0 0 -0 -0 -0 0 0 0 0 0 0 0 0 0 0 0 0 0 0 0 0 0 0 0 0 0
0 0 0 0 0 0 0 0 0 0 0 0 0 0 0 -0 -0 -0 0 0 0 0 0 0 0 0 0 0 0 0 0 0 0 0 0 0 0 0
0 0 0 -0 -0 -0 0 0 0 -0 0 0 -0 -0 -0 0 0 0 0 0 0 0 0 0 0 0 0 0 0 0 0 0 0 0 0 0 0 0
0 0 0 -0 -0 -0 0 -0 -0 -0 -0 -0 -0 0 0 0 -0 -0 -0 -0 -0 0 0 0 0 0 0 0 0 0 0 0 0 0 0 0 0 0
0 0 -0 -0 -0 -0 -0 -0 -0 0 0 0 0 0 -0 -0 -0 -0 -0 -0 -0 0 0 0 0 0 0 0 0 0 0 0 0 0 0 0 0 0
0 0 0 0 -0 0 0 0 0 0 0 -0 -0 -0 -0 0 0 0 0 0 0 0 0 0 0 -0 0 0 0 0 0 0 0 0 0 0 0 0
0 0 0 0 0 0 0 0 0 0 0 0 0 0 0 0 0 0 0 0 0 0 0 0 0 -0 -0 0 0 0 0 0 0 0 0 0 0 0
0 0 0 0 0 0 0 0 0 0 0 0 0 0 0 0 0 0 0 0 0 0 0 0 0 0 0 -0 0 0 0 0 0 0 0 0 0 0
0 0 0 0 0 0 0 0 0 0 -0 0 0 0 0 0 0 0 0 0 0 0 0 0 0 0 0 0 -0 0 0 0 0 0 0 0 0 0
0 0 0 0 0 0 0 0 0 0 0 0 0 0 0 0 0 0 0 0 0 0 0 0 0 0 0 0 -0 -0 -0 0 0 0 0 0 0 0
0 0 0 0 0 0 0 0 0 0 0 0 0 0 0 -0 -0 -0 -0 -0 -0 0 0 0 0 -0 -0 -0 0 0 0 0 -0 -0 0 0 0 0
0 0 0 0 0 0 0 0 0 0 0 0 0 0 0 -0 -0 -0 0 0 0 -0 -0 -0 -0 -0 -0 0 0 0 0 0 0 0 -0 0 -0 -0
0 0 0 0 0 0 0 0 0 0 0 0 0 0 0 0 0 0 0 0 0 0 0 0 -0 0 -0 -0 -0 0 0 0 0 0 0 0 0 0
Wind_Speed_500mb
18 18 19 19 19 19 22 21 23 22 32 27 45 50 50 49 47 45 41 37 47 55 57 69 78 80 77 74 74 72 71 73 74 79 92 100 105 111
17 18 18 15 16 18 20 19 21 21 19 37 42 49 55 50 43 41 28 10 7 19 35 50 66 71 76 80 80 79 76 72 72 74 77 83 89 95
17 18 18 17 18 19 17 17 21 24 27 40 43 48 55 56 50 34 24 12 11 16 20 30 39 39 52 65 74 82 82 78 71 69 73 76 81 85
17 18 19 18 18 18 18 19 21 22 26 39 41 49 53 57 49 39 26 16 14 20 22 29 38 38 39 49 61 68 76 79 77 75 71 73 76 79
21 21 22 21 19 21 20 21 22 24 24 30 36 40 46 58 52 38 29 17 11 16 20 19 20 30 34 36 40 55 62 68 80 77 74 72 72 77
22 22 24 22 24 24 22 23 23 24 25 26 30 37 41 51 50 45 37 28 9 14 9 5 3 3 13 20 26 28 38 55 63 68 66 63 70 69
22 22 24 27 23 25 24 24 26 26 25 25 27 32 40 51 57 46 35 33 18 16 18 24 18 16 18 15 9 9 16 18 36 51 55 58 61 66
26 28 28 30 22 23 23 24 26 28 27 28 28 33 39 45 48 44 32 33 27 20 18 21 29 32 30 31 22 9 3 18 26 35 35 43 50 54
26 32 33 32 22 22 24 25 24 27 28 27 30 35 38 44 44 41 20 18 37 32 12 17 17 32 32 29 27 22 19 13 8 18 20 28 35 43
24 31 34 29 26 22 23 22 22 24 27 28 30 32 32 36 38 34 26 9 11 35 22 25 21 23 36 30 30 28 28 24 19 13 12 9 11 15
18 22 31 27 28 22 20 21 22 24 27 25 25 27 28 29 33 31 37 24 6 37 32 31 27 9 24 37 38 36 42 39 32 27 21 16 13 13
15 17 23 31 29 24 23 22 21 25 24 21 23 24 29 32 36 42 45 47 40 17 39 33 35 26 7 23 47 35 40 39 36 34 32 28 24 18
17 19 24 30 30 27 26 28 30 27 23 24 26 30 35 38 41 45 48 47 44 37 39 33 36 33 20 22 26 47 32 40 40 37 35 34 32 30
19 21 24 26 27 25 28 31 27 25 26 30 34 37 41 43 41 42 43 45 45 39 31 32 36 38 33 35 38 47 33 39 42 40 36 33 32 32
20 22 24 24 24 23 25 24 23 28 31 34 39 40 42 41 39 37 38 45 47 43 37 28 30 34 34 38 39 49 56 37 48 44 37 37 37 35
18 19 19 19 19 22 23 25 28 31 34 36 37 37 36 37 39 38 38 38 41 47 46 41 32 32 40 32 40 44 48 43 50 47 40 33 32 32
16 15 14 15 17 21 25 27 28 29 32 34 35 36 38 38 39 40 40 39 41 44 47 45 39 37 35 48 42 48 47 47 51 50 44 36 32 33
14 11 12 14 17 21 24 26 29 31 33 34 35 37 39 41 40 41 39 37 37 40 42 46 46 39 36 32 51 53 48 47 50 47 42 42 36 36
9 8 11 13 17 19 22 25 28 30 31 32 34 35 36 37 39 40 41 39 38 37 40 42 45 42 43 42 35 53 50 45 46 44 42 41 41 42
6 6 8 11 14 17 20 23 25 27 27 28 29 30 32 33 34 36 38 36 31 31 33 38 44 41 39 38 33 41 48 48 47 43 42 41 41 37
5 4 5 7 10 12 15 18 20 21 23 25 27 28 29 29 30 30 31 34 30 28 31 34 38 39 31 31 34 44 42 42 38 33 38 47 52 34
6 5 3 2 5 8 11 14 17 19 21 23 25 27 29 30 29 29 30 29 26 26 27 27 30 32 31 35 37 43 45 49 40 32 27 37 39 37
10 9 7 4 2 2 6 10 13 16 18 20 22 24 26 27 28 28 29 30 28 26 27 29 29 29 29 31 36 38 43 47 45 41 32 34 32 32
Wind_Direction_500mb
349 353 357 355 356 350 2 1 353 337 338 342 347 338 338 335 328 315 298 285 263 258 259 250 247 247 249 250 250 250 251 251 249 245 244 249 251 248
341 346 350 348 351 350 356 358 357 338 317 332 337 343 346 343 335 332 325 325 357 257 255 261 253 253 251 249 248 247 248 250 250 251 250 248 249 249
346 349 351 347 349 343 342 348 355 340 330 339 336 345 352 347 345 342 337 269 250 287 257 270 278 268 255 252 250 247 245 246 249 250 251 252 252 251
355 355 353 356 351 345 345 351 352 341 337 334 342 348 354 354 352 348 343 311 274 283 292 285 283 293 292 272 260 256 251 249 250 252 254 254 254 254
358 357 357 355 356 354 352 353 348 343 341 337 336 344 353 357 2 8 2 344 300 277 266 275 275 272 277 281 278 263 257 252 247 250 254 255 255 256
4 358 356 355 354 356 351 353 350 349 346 347 343 350 353 2 7 10 16 12 23 45 108 90 90 209 245 254 254 265 263 255 249 246 248 249 252 256
8 6 360 358 352 347 351 354 354 357 355 357 354 358 358 2 8 5 11 25 359 35 76 72 73 69 69 67 73 236 256 254 251 247 247 248 248 255
14 12 9 5 359 355 359 356 352 354 360 5 2 4 1 359 8 6 12 18 18 40 61 67 65 50 52 49 47 55 191 252 260 251 249 248 257 255
16 16 13 11 8 6 6 3 1 353 356 3 6 6 0 1 7 14 20 49 23 21 36 91 65 40 36 41 38 38 40 39 326 290 283 278 275 275
11 15 17 15 14 17 13 6 8 4 6 7 5 4 2 4 11 18 18 86 356 32 48 62 88 67 29 33 35 37 37 30 25 12 -0 325 329 312
15 11 13 22 26 27 22 19 16 15 18 17 13 9 11 14 20 27 41 57 58 31 37 47 35 65 48 17 33 37 42 39 35 21 7 350 342 334
35 22 15 22 25 30 31 34 33 35 28 26 25 27 28 30 32 35 37 41 40 42 30 38 31 37 50 5 24 25 36 37 37 34 31 26 22 4
39 31 26 21 27 31 37 40 40 39 41 43 43 45 45 40 37 37 37 39 40 40 31 32 32 33 32 354 10 18 21 24 24 25 30 33 28 21
45 41 35 32 31 37 44 45 45 48 52 55 55 53 52 49 47 46 44 44 40 37 33 31 35 29 18 20 11 16 20 19 19 21 20 23 26 30
47 47 42 40 41 45 52 51 53 55 56 55 52 50 51 53 56 59 53 51 48 43 40 34 33 36 31 27 16 14 17 19 16 22 26 25 21 16
56 51 47 46 49 53 55 54 53 53 53 55 55 53 51 49 48 49 52 55 55 51 44 41 41 37 34 29 22 20 20 15 16 16 26 28 22 18
67 62 62 62 62 60 58 56 55 56 55 53 52 51 50 48 46 43 42 38 37 34 37 44 47 42 38 32 24 19 13 14 13 10 11 18 17 12
70 71 73 70 67 63 60 58 55 53 50 48 45 43 43 40 40 38 38 35 33 28 26 25 26 31 36 24 21 16 13 7 6 6 3 359 0 4
86 82 74 67 63 60 57 54 50 47 45 42 40 38 37 37 36 36 35 33 30 26 23 21 22 24 21 16 18 14 7 3 1 1 360 357 346 349
113 103 85 71 62 56 50 47 44 41 38 36 34 32 30 31 31 31 31 31 26 22 20 20 20 20 14 2 356 3 17 6 2 359 355 351 343 350
160 133 95 75 64 54 47 42 38 34 31 29 27 26 25 24 24 25 23 23 25 17 15 13 11 17 5 5 2 4 9 16 12 4 358 356 352 352
201 193 172 89 54 43 38 33 29 25 20 17 16 16 16 17 14 11 11 13 10 8 5 0 1 6 7 7 0 355 357 4 10 13 5 11 2 351
225 227 229 236 258 19 26 23 18 11 8 7 7 5 5 6 4 1 359 359 356 357 354 353 355 356 360 358 356 352 352 356 356 357 355 356 353 354
Wind_Speed_850mb
18 18 19 19 19 19 22 21 23 22 32 27 45 50 50 49 47 45 41 37 47 55 57 69 78 80 77 74 74 72 71 73 74 79 92 100 105 111
17 18 18 15 16 18 20 19 21 21 19 37 42 49 55 50 43 41 28 10 7 19 35 50 66 71 76 80 80 79 76 72 72 74 77 83 89 95
17 18 18 17 18 19 17 17 21 24 27 40 43 48 55 56 50 34 24 12 11 16 20 30 39 39 52 65 74 82 82 78 71 69 73 76 81 85
17 18 19 18 18 18 18 19 21 22 26 39 41 49 53 57 49 39 26 16 14 20 22 29 38 38 39 49 61 68 76 79 77 75 71 73 76 79
21 21 22 21 19 21 20 21 22 24 24 30 36 40 46 58 52 38 29 17 11 16 20 19 20 30 34 36 40 55 62 68 80 77 74 72 72 77
22 22 24 22 24 24 22 23 23 24 25 26 30 37 41 51 50 45 37 28 9 14 9 5 3 3 13 20 26 28 38 55 63 68 66 63 70 69
22 22 24 27 23 25 24 24 26 26 25 25 27 32 40 51 57 46 35 33 18 16 18 24 18 16 18 15 9 9 16 18 36 51 55 58 61 66
26 28 28 30 22 23 23 24 26 28 27 28 28 33 39 45 48 44 32 33 27 20 18 21 29 32 30 31 22 9 3 18 26 35 35 43 50 54
26 32 33 32 22 22 24 25 24 27 28 27 30 35 38 44 44 41 20 18 37 32 12 17 17 32 32 29 27 22 19 13 8 18 20 28 35 43
24 31 34 29 26 22 23 22 22 24 27 28 30 32 32 36 38 34 26 9 11 35 22 25 21 23 36 30 30 28 28 24 19 13 12 9 11 15
18 22 31 27 28 22 20 21 22 24 27 25 25 27 28 29 33 31 37 24 6 37 32 31 27 9 24 37 38 36 42 39 32 27 21 16 13 13
15 17 23 31 29 24 23 22 21 25 24 21 23 24 29 32 36 42 45 47 40 17 39 33 35 26 7 23 47 35 40 39 36 34 32 28 24 18
17 19 24 30 30 27 26 28 30 27 23 24 26 30 35 38 41 45 48 47 44 37 39 33 36 33 20 22 26 47 32 40 40 37 35 34 32 30
19 21 24 26 27 25 28 31 27 25 26 30 34 37 41 43 41 42 43 45 45 39 31 32 36 38 33 35 38 47 33 39 42 40 36 33 32 32
20 22 24 24 24 23 25 24 23 28 31 34 39 40 42 41 39 37 38 45 47 43 37 28 30 34 34 38 39 49 56 37 48 44 37 37 37 35
18 19 19 19 19 22 23 25 28 31 34 36 37 37 36 37 39 38 38 38 41 47 46 41 32 32 40 32 40 44 48 43 50 47 40 33 32 32
16 15 14 15 17 21 25 27 28 29 32 34 35 36 38 38 39 40 40 39 41 44 47 45 39 37 35 48 42 48 47 47 51 50 44 36 32 33
14 11 12 14 17 21 24 26 29 31 33 34 35 37 39 41 40 41 39 37 37 40 42 46 46 39 36 32 51 53 48 47 50 47 42 42 36 36
9 8 11 13 17 19 22 25 28 30 31 32 34 35 36 37 39 40 41 39 38 37 40 42 45 42 43 42 35 53 50 45 46 44 42 41 41 42
6 6 8 11 14 17 20 23 25 27 27 28 29 30 32 33 34 36 38 36 31 31 33 38 44 41 39 38 33 41 48 48 47 43 42 41 41 37
5 4 5 7 10 12 15 18 20 21 23 25 27 28 29 29 30 30 31 34 30 28 31 34 38 39 31 31 34 44 42 42 38 33 38 47 52 34
6 5 3 2 5 8 11 14 17 19 21 23 25 27 29 30 29 29 30 29 26 26 27 27 30 32 31 35 37 43 45 49 40 32 27 37 39 37
10 9 7 4 2 2 6 10 13 16 18 20 22 24 26 27 28 28 29 30 28 26 27 29 29 29 29 31 36 38 43 47 45 41 32 34 32 32
Wind_Direction_850mb
349 353 357 355 356 350 2 1 353 337 338 342 347 338 338 335 328 315 298 285 263 258 259 250 247 247 249 250 250 250 251 251 249 245 244 249 251 248
341 346 350 348 351 350 356 358 357 338 317 332 337 343 346 343 335 332 325 325 357 257 255 261 253 253 251 249 248 247 248 250 250 251 250 248 249 249
346 349 351 347 349 343 342 348 355 340 330 339 336 345 352 347 345 342 337 269 250 287 257 270 278 268 255 252 250 247 245 246 249 250 251 252 252 251
355 355 353 356 351 345 345 351 352 341 337 334 342 348 354 354 352 348 343 311 274 283 292 285 283 293 292 272 260 256 251 249 250 252 254 254 254 254
358 357 357 355 356 354 352 353 348 343 341 337 336 344 353 357 2 8 2 344 300 277 266 275 275 272 277 281 278 263 257 252 247 250 254 255 255 256
4 358 356 355 354 356 351 353 350 349 346 347 343 350 353 2 7 10 16 12 23 45 108 90 90 209 245 254 254 265 263 255 249 246 248 249 252 256
8 6 360 358 352 347 351 354 354 357 355 357 354 358 358 2 8 5 11 25 359 35 76 72 73 69 69 67 73 236 256 254 251 247 247 248 248 255
14 12 9 5 359 355 359 356 352 354 360 5 2 4 1 359 8 6 12 18 18 40 61 67 65 50 52 49 47 55 191 252 260 251 249 248 257 255
16 16 13 11 8 6 6 3 1 353 356 3 6 6 0 1 7 14 20 49 23 21 36 91 65 40 36 41 38 38 40 39 326 290 283 278 275 275
11 15 17 15 14 17 13 6 8 4 6 7 5 4 2 4 11 18 18 86 356 32 48 62 88 67 29 33 35 37 37 30 25 12 -0 325 329 312
15 11 13 22 26 27 22 19 16 15 18 17 13 9 11 14 20 27 41 57 58 31 37 47 35 65 48 17 33 37 42 39 35 21 7 350 342 334
35 22 15 22 25 30 31 34 33 35 28 26 25 27 28 30 32 35 37 41 40 42 30 38 31 37 50 5 24 25 36 37 37 34 31 26 22 4
39 31 26 21 27 31 37 40 40 39 41 43 43 45 45 40 37 37 37 39 40 40 31 32 32 33 32 354 10 18 21 24 24 25 30 33 28 21
45 41 35 32 31 37 44 45 45 48 52 55 55 53 52 49 47 46 44 44 40 37 33 31 35 29 18 20 11 16 20 19 19 21 20 23 26 30
47 47 42 40 41 45 52 51 53 55 56 55 52 50 51 53 56 59 53 51 48 43 40 34 33 36 31 27 16 14 17 19 16 22 26 25 21 16
56 51 47 46 49 53 55 54 53 53 53 55 55 53 51 49 48 49 52 55 55 51 44 41 41 37 34 29 22 20 20 15 16 16 26 28 22 18
67 62 62 62 62 60 58 56 55 56 55 53 52 51 50 48 46 43 42 38 37 34 37 44 47 42 38 32 24 19 13 14 13 10 11 18 17 12
70 71 73 70 67 63 60 58 55 53 50 48 45 43 43 40 40 38 38 35 33 28 26 25 26 31 36 24 21 16 13 7 6 6 3 359 0 4
86 82 74 67 63 60 57 54 50 47 45 42 40 38 37 37 36 36 35 33 30 26 23 21 22 24 21 16 18 14 7 3 1 1 360 357 346 349
113 103 85 71 62 56 50 47 44 41 38 36 34 32 30 31 31 31 31 31 26 22 20 20 20 20 14 2 356 3 17 6 2 359 355 351 343 350
160 133 95 75 64 54 47 42 38 34 31 29 27 26 25 24 24 25 23 23 25 17 15 13 11 17 5 5 2 4 9 16 12 4 358 356 352 352
201 193 172 89 54 43 38 33 29 25 20 17 16 16 16 17 14 11 11 13 10 8 5 0 1 6 7 7 0 355 357 4 10 13 5 11 2 351
225 227 229 236 258 19 26 23 18 11 8 7 7 5 5 6 4 1 359 359 356 357 354 353 355 356 360 358 356 352 352 356 356 357 355 356 353 354